Weather History for Plattsmouth, NE

Change the Weather History Date:

Sunday, December 30, 2012

  Actual Average (KOFF) Record (KOFF)
Temperature  
Mean Temperature 31 °F -  
Max Temperature 45 °F 33 °F 66 °F (2004)
Min Temperature 17 °F 14 °F 0 °F (2014)
Degree Days  
Heating Degree Days 34    
Moisture  
Dew Point 22 °F    
Average Humidity 68    
Maximum Humidity 89    
Minimum Humidity 43    
Precipitation  
Precipitation 0.00 in - - ()
Sea Level Pressure  
Sea Level Pressure 30.08 in    
Wind  
Wind Speed 9 mph (SSW)    
Max Wind Speed 21 mph    
Max Gust Speed 36 mph    
Visibility 10 miles    
Events      
Averages and records for this station are not official NWS values.
T = Trace of Precipitation, MM = Missing Value Source: NWS Daily Summary

Daily Weather History Graph

Daily Weather History Graph

Search for Another Location

Airport:

Trip Planner

Search our weather history database for the weather conditions in past years. The results will help you decide how hot, cold, wet, or windy it might be!

Date:

Astronomy

Dec. 30, 2012 Rise Set
Actual Time 7:48 AM CST 5:04 PM CST
Civil Twilight 7:17 AM CST 5:35 PM CST
Nautical Twilight 6:42 AM CST 6:10 PM CST
Astronomical Twilight 6:09 AM CST 6:43 PM CST
Moon 7:38 PM CST 8:56 AM CST
Length of Visible Light 10h 18m
Length of Day
9h 16m
Waning Gibbous, 95% of the Moon is Illuminated
Dec 30
Waning Gibbous
Jan 4
Last Quarter
Jan 11
New
Jan 18
First Quarter
Jan 26
Full

Hourly Weather History & Observations

Time (CST) Temp. Windchill Dew Point Humidity Pressure Visibility Wind Dir Wind Speed Gust Speed Precip Events Conditions
12:15 AM 18.3 °F 13.1 °F 14.7 °F 86% 30.22 in 10.0 mi South 3.5 mph - N/A   Clear
12:55 AM 17.2 °F 8.9 °F 14.2 °F 88% 30.23 in 10.0 mi SSW 5.8 mph - N/A   Clear
1:15 AM 20.3 °F 10.6 °F 16.2 °F 84% 30.23 in 10.0 mi SW 8.1 mph - N/A   Clear
1:35 AM 21.7 °F 14.3 °F 16.5 °F 80% 30.23 in 10.0 mi SSW 5.8 mph - N/A   Clear
1:55 AM 21.6 °F 14.0 °F 16.3 °F 80% 30.23 in 10.0 mi SSW 5.8 mph - N/A   Clear
2:15 AM 20.8 °F 13.2 °F 16.0 °F 81% 30.23 in 10.0 mi SSW 5.8 mph - N/A   Clear
2:35 AM 19.8 °F 14.7 °F 15.1 °F 82% 30.23 in 10.0 mi South 3.5 mph - N/A   Clear
2:55 AM 18.3 °F - 14.5 °F 85% 30.23 in 10.0 mi Calm Calm - N/A   Clear
3:15 AM 17.8 °F 12.5 °F 14.7 °F 88% 30.22 in 10.0 mi South 3.5 mph - N/A   Clear
3:35 AM 17.8 °F 10.9 °F 14.5 °F 87% 30.21 in 10.0 mi SSE 4.6 mph - N/A   Clear
3:55 AM 17.2 °F 7.8 °F 14.5 °F 89% 30.21 in 10.0 mi SSE 6.9 mph - N/A   Clear
4:15 AM 18.0 °F 8.7 °F 14.2 °F 85% 30.20 in 10.0 mi SSE 6.9 mph - N/A   Clear
7:35 AM 21.0 °F 9.9 °F 16.5 °F 83% 30.18 in 10.0 mi SSE 10.4 mph - N/A   Clear
7:55 AM 19.9 °F 8.6 °F 15.8 °F 84% 30.17 in 10.0 mi SSE 10.4 mph - N/A   Clear
8:15 AM 20.3 °F 9.8 °F 16.3 °F 85% 30.16 in 10.0 mi SSE 9.2 mph - N/A   Clear
8:35 AM 21.2 °F 10.1 °F 16.7 °F 83% 30.16 in 10.0 mi SSE 10.4 mph - N/A   Clear
8:55 AM 21.7 °F 10.2 °F 16.9 °F 82% 30.14 in 10.0 mi SE 11.5 mph - N/A   Clear
9:15 AM 23.5 °F 13.0 °F 17.6 °F 78% 30.14 in 10.0 mi SE 10.4 mph - N/A   Clear
9:35 AM 23.9 °F 13.5 °F 18.1 °F 79% 30.14 in 10.0 mi SSE 10.4 mph - N/A   Clear
9:55 AM 26.4 °F 16.0 °F 19.2 °F 74% 30.14 in 10.0 mi SSE 11.5 mph - N/A   Clear
10:15 AM 29.5 °F 19.9 °F 20.3 °F 69% 30.13 in 10.0 mi SSE 11.5 mph 16.1 mph N/A   Clear
10:35 AM 31.5 °F 21.8 °F 21.7 °F 67% 30.13 in 10.0 mi SSE 12.7 mph - N/A   Clear
10:55 AM 32.7 °F 25.0 °F 23.0 °F 67% 30.13 in 10.0 mi SSE 9.2 mph - N/A   Clear
11:15 AM 36.1 °F 26.5 °F 23.4 °F 60% 30.10 in 10.0 mi South 16.1 mph 20.7 mph N/A   Clear
11:35 AM 37.9 °F 29.2 °F 23.9 °F 57% 30.08 in 10.0 mi SSE 15.0 mph - N/A   Clear
11:55 AM 39.7 °F 30.6 °F 23.9 °F 53% 30.05 in 10.0 mi South 18.4 mph 21.9 mph N/A   Clear
12:15 PM 40.1 °F 31.0 °F 24.3 °F 53% 30.03 in 10.0 mi South 18.4 mph 25.3 mph N/A   Clear
12:35 PM 40.8 °F 32.0 °F 24.3 °F 52% 30.01 in 10.0 mi SSE 18.4 mph 26.5 mph N/A   Clear
12:55 PM 41.0 °F 32.2 °F 24.3 °F 51% 30.00 in 10.0 mi South 18.4 mph 26.5 mph N/A   Clear
1:15 PM 41.4 °F 33.0 °F 25.0 °F 52% 29.99 in 10.0 mi South 17.3 mph 25.3 mph N/A   Clear
1:35 PM 42.3 °F 34.4 °F 25.2 °F 51% 29.98 in 10.0 mi South 16.1 mph 23.0 mph N/A   Clear
1:55 PM 43.3 °F 35.0 °F 25.3 °F 49% 29.97 in 10.0 mi South 19.6 mph 24.2 mph N/A   Clear
2:15 PM 44.8 °F 36.9 °F 25.7 °F 47% 29.97 in 10.0 mi SSW 19.6 mph 24.2 mph N/A   Clear
2:35 PM 45.1 °F 37.3 °F 23.5 °F 43% 29.97 in 10.0 mi SSW 19.6 mph 35.7 mph N/A   Clear
2:55 PM 44.2 °F 35.9 °F 23.9 °F 45% 29.96 in 10.0 mi South 20.7 mph 27.6 mph N/A   Clear
3:15 PM 44.8 °F 36.9 °F 24.6 °F 45% 29.95 in 10.0 mi South 19.6 mph 28.8 mph N/A   Clear
3:35 PM 44.6 °F 37.2 °F 25.5 °F 47% 29.96 in 10.0 mi SSW 17.3 mph 25.3 mph N/A   Clear
3:55 PM 43.7 °F 36.3 °F 25.0 °F 48% 29.97 in 10.0 mi SSW 16.1 mph 24.2 mph N/A   Clear
4:15 PM 43.2 °F 35.6 °F 25.3 °F 49% 29.97 in 10.0 mi South 16.1 mph - N/A   Clear
4:35 PM 42.1 °F 35.7 °F 25.7 °F 52% 29.97 in 10.0 mi SSW 11.5 mph - N/A   Clear
4:55 PM 41.0 °F 34.7 °F 26.4 °F 56% 29.98 in 10.0 mi SSW 10.4 mph - N/A   Clear
5:15 PM 40.1 °F 35.3 °F 26.8 °F 59% 29.99 in 10.0 mi SSW 6.9 mph - N/A   Clear
5:35 PM 39.9 °F 35.8 °F 26.8 °F 59% 30.00 in 10.0 mi SW 5.8 mph - N/A   Clear
5:55 PM 38.5 °F 34.1 °F 27.5 °F 65% 30.01 in 10.0 mi WSW 5.8 mph - N/A   Clear
6:15 PM 37.8 °F 30.2 °F 28.0 °F 68% 30.02 in 10.0 mi West 11.5 mph - N/A   Clear
6:35 PM 36.3 °F 28.0 °F 27.0 °F 69% 30.03 in 10.0 mi WSW 12.7 mph - N/A   Clear
6:55 PM 34.9 °F 27.1 °F 26.4 °F 71% 30.03 in 10.0 mi West 10.4 mph - N/A   Clear
7:15 PM 34.0 °F 26.0 °F 26.2 °F 73% 30.04 in 10.0 mi West 10.4 mph - N/A   Clear
7:35 PM 33.8 °F 26.4 °F 25.5 °F 72% 30.04 in 10.0 mi West 9.2 mph - N/A   Clear
7:55 PM 33.1 °F 25.5 °F 25.3 °F 73% 30.04 in 10.0 mi West 9.2 mph - N/A   Clear
8:15 PM 32.9 °F 25.9 °F 25.3 °F 74% 30.05 in 10.0 mi West 8.1 mph - N/A   Clear
8:35 PM 32.4 °F 26.0 °F 25.2 °F 75% 30.04 in 10.0 mi West 6.9 mph - N/A   Clear
8:55 PM 32.0 °F 25.6 °F 25.0 °F 75% 30.05 in 10.0 mi West 6.9 mph - N/A   Clear
9:15 PM 32.0 °F 24.8 °F 24.6 °F 74% 30.04 in 10.0 mi West 8.1 mph - N/A   Clear
9:35 PM 32.0 °F 25.6 °F 23.9 °F 72% 30.05 in 10.0 mi West 6.9 mph - N/A   Clear
9:55 PM 32.0 °F 23.6 °F 22.8 °F 69% 30.07 in 10.0 mi West 10.4 mph - N/A   Clear
10:15 PM 31.5 °F 22.9 °F 21.7 °F 67% 30.07 in 10.0 mi WNW 10.4 mph - N/A   Scattered Clouds
10:35 PM 30.7 °F 21.4 °F 21.0 °F 67% 30.08 in 10.0 mi WNW 11.5 mph - N/A   Scattered Clouds
10:55 PM 29.8 °F 21.5 °F 21.4 °F 71% 30.08 in 10.0 mi WNW 9.2 mph - N/A   Scattered Clouds
11:15 PM 28.2 °F 17.2 °F 19.2 °F 69% 30.08 in 10.0 mi NW 13.8 mph 19.6 mph N/A   Scattered Clouds
11:35 PM 26.8 °F 16.5 °F 17.8 °F 69% 30.08 in 10.0 mi NW 11.5 mph - N/A   Clear
11:55 PM 26.4 °F 16.6 °F 17.6 °F 69% 30.09 in 10.0 mi NW 10.4 mph - N/A   Clear